N5AJY Weather Reports


Display with metric or nautical units.
time (UTC)temp
F
wind
direction
speed
MPH
gust
MPH
rain 1hr
in
rain 24hr
in
rain mn
in
humidity
%
barometer
mb
20260906190630 104 273 0.0 7.0 0.00 0.00 0.00 29 1008.3
20260906190129 106 272 0.0 3.0 0.00 0.00 0.00 30 1008.4
20260906185630 105 271 0.0 1.0 0.00 0.00 0.00 31 1008.4
20260906185129 104 274 0.0 1.0 0.00 0.00 0.00 32 1008.4
20260906184628 103 0 0.0 0.0 0.00 0.00 0.00 33 1008.6
20260906184129 103 0 0.0 0.0 0.00 0.00 0.00 34 1008.6
20260906183629 103 265 0.0 56.0 0.00 0.00 0.00 34 1008.8
20260906183135 103 250 1.0 92.0 0.00 0.00 0.00 35 1008.8
20260906182629 102 246 1.0 92.0 0.00 0.00 0.00 35 1008.9
20260906182130 103 274 0.0 1.0 0.00 0.00 0.00 34 1008.9
20260906181629 102 0 0.0 0.0 0.00 0.00 0.00 35 1009.2
20260906181130 103 0 0.0 0.0 0.00 0.00 0.00 35 1009.2
20260906180630 102 0 0.0 0.0 0.00 0.00 0.00 35 1009.3
20260906180129 102 0 0.0 0.0 0.00 0.00 0.00 37 1009.4
20260906175630 101 0 0.0 0.0 0.00 0.00 0.00 37 1009.5
20260906175129 101 0 0.0 0.0 0.00 0.00 0.00 37 1009.6
20260906174628 100 0 0.0 0.0 0.00 0.00 0.00 38 1009.7
20260906174129 100 0 0.0 0.0 0.00 0.00 0.00 39 1009.8
20260906173629 99 0 0.0 0.0 0.00 0.00 0.00 40 1009.9
20260906173130 99 0 0.0 0.0 0.00 0.00 0.00 39 1010.0
20260906172629 99 0 0.0 0.0 0.00 0.00 0.00 40 1010.1
20260906172129 99 0 0.0 0.0 0.00 0.00 0.00 40 1010.2
20260906171630 98 0 0.0 0.0 0.00 0.00 0.00 41 1010.2
20260906171129 98 0 0.0 0.0 0.00 0.00 0.00 41 1010.2
20260906170628 98 0 0.0 0.0 0.00 0.00 0.00 42 1010.3
20260906170129 98 0 0.0 0.0 0.00 0.00 0.00 41 1010.4
20260906165628 98 0 0.0 0.0 0.00 0.00 0.00 42 1010.4
20260906165130 98 0 0.0 0.0 0.00 0.00 0.00 42 1010.5
20260906164629 98 0 0.0 0.0 0.00 0.00 0.00 42 1010.5
20260906164130 97 0 0.0 0.0 0.00 0.00 0.00 42 1010.5
20260906163629 97 0 0.0 0.0 0.00 0.00 0.00 41 1010.6
20260906163130 97 0 0.0 0.0 0.00 0.00 0.00 42 1010.7
20260906162629 97 0 0.0 0.0 0.00 0.00 0.00 44 1010.6
20260906162130 97 0 0.0 0.0 0.00 0.00 0.00 44 1010.6
20260906161945 97 0 0.0 0.0 0.00 0.00 0.00 45 1010.7
20260906161629 97 0 0.0 0.0 0.00 0.00 0.00 45 1010.7
20260906161130 96 0 0.0 0.0 0.00 0.00 0.00 46 1010.7
20260906160629 95 0 0.0 0.0 0.00 0.00 0.00 47 1010.6
20260906160129 95 0 0.0 0.0 0.00 0.00 0.00 47 1010.8
20260906155632 95 0 0.0 0.0 0.00 0.00 0.00 47 1010.8
20260906155129 95 0 0.0 0.0 0.00 0.00 0.00 48 1010.8
20260906154630 95 0 0.0 0.0 0.00 0.00 0.00 48 1010.8
20260906154129 94 0 0.0 0.0 0.00 0.00 0.00 49 1010.7
20260906153630 93 0 0.0 0.0 0.00 0.00 0.00 49 1010.7
20260906153129 94 0 0.0 0.0 0.00 0.00 0.00 50 1010.7
20260906152628 94 0 0.0 0.0 0.00 0.00 0.00 50 1010.6
20260906152130 93 0 0.0 0.0 0.00 0.00 0.00 50 1010.7
20260906151629 93 0 0.0 0.0 0.00 0.00 0.00 51 1010.7
20260906151130 93 0 0.0 0.0 0.00 0.00 0.00 51 1010.6
20260906150629 94 0 0.0 0.0 0.00 0.00 0.00 50 1010.7
20260906150130 92 0 0.0 0.0 0.00 0.00 0.00 54 1010.6
20260906145629 91 0 0.0 0.0 0.00 0.00 0.00 55 1010.6
20260906145128 90 0 0.0 0.0 0.00 0.00 0.00 55 1010.6
20260906144630 90 0 0.0 0.0 0.00 0.00 0.00 56 1010.6
20260906144129 89 0 0.0 0.0 0.00 0.00 0.00 57 1010.5
20260906143631 90 0 0.0 0.0 0.00 0.00 0.00 56 1010.5
20260906143131 90 0 0.0 0.0 0.00 0.00 0.00 57 1010.6
20260906142629 90 0 0.0 0.0 0.00 0.00 0.00 56 1010.6
20260906141630 88 0 0.0 0.0 0.00 0.00 0.00 61 1010.6
20260906141131 88 0 0.0 0.0 0.00 0.00 0.00 61 1010.5
20260906140630 87 0 0.0 0.0 0.00 0.00 0.00 63 1010.5
20260906140129 86 0 0.0 0.0 0.00 0.00 0.00 66 1010.5
20260906135629 85 0 0.0 0.0 0.00 0.00 0.00 66 1010.4
20260906135133 85 0 0.0 0.0 0.00 0.00 0.00 66 1010.4
20260906134629 84 0 0.0 0.0 0.00 0.00 0.00 68 1010.4
20260906134129 83 0 0.0 0.0 0.00 0.00 0.00 71 1010.4
20260906133629 83 0 0.0 0.0 0.00 0.00 0.00 71 1010.4
20260906133130 82 0 0.0 0.0 0.00 0.00 0.00 71 1010.4
20260906132628 82 0 0.0 0.0 0.00 0.00 0.00 72 1010.4
20260906131629 81 0 0.0 0.0 0.00 0.00 0.00 73 1010.4
20260906131132 81 0 0.0 0.0 0.00 0.00 0.00 73 1010.3
20260906130628 80 0 0.0 0.0 0.00 0.00 0.00 74 1010.3
20260906130129 80 0 0.0 0.0 0.00 0.00 0.00 74 1010.3
20260906125629 77 0 0.0 0.0 0.00 0.00 0.00 75 1010.2
20260906125129 77 0 0.0 0.0 0.00 0.00 0.00 75 1010.1
20260906124628 77 0 0.0 0.0 0.00 0.00 0.00 75 1010.1
20260906124127 77 0 0.0 0.0 0.00 0.00 0.00 75 1010.0
20260906123629 77 0 0.0 0.0 0.00 0.00 0.00 75 1010.0
20260906123128 77 0 0.0 0.0 0.00 0.00 0.00 75 1009.9
20260906122629 77 0 0.0 0.0 0.00 0.00 0.00 75 1009.8
20260906122130 77 0 0.0 0.0 0.00 0.00 0.00 75 1009.8
20260906121629 77 0 0.0 0.0 0.00 0.00 0.00 75 1009.8
20260906121128 77 0 0.0 0.0 0.00 0.00 0.00 75 1009.8
20260906120629 77 0 0.0 0.0 0.00 0.00 0.00 75 1009.6
20260906120129 77 0 0.0 0.0 0.00 0.00 0.00 75 1009.7
20260906115628 77 0 0.0 0.0 0.00 0.00 0.00 75 1009.7
20260906115129 77 0 0.0 0.0 0.00 0.00 0.00 75 1009.7
20260906114629 77 0 0.0 0.0 0.00 0.00 0.00 75 1009.6
20260906114129 77 0 0.0 0.0 0.00 0.00 0.00 75 1009.6
20260906113628 77 0 0.0 0.0 0.00 0.00 0.00 75 1009.4
20260906113128 77 0 0.0 0.0 0.00 0.00 0.00 75 1009.4
20260906112628 77 0 0.0 0.0 0.00 0.00 0.00 75 1009.3
20260906112128 77 0 0.0 0.0 0.00 0.00 0.00 75 1009.4
20260906111629 77 0 0.0 0.0 0.00 0.00 0.00 75 1009.3
20260906111128 77 0 0.0 0.0 0.00 0.00 0.00 75 1009.3
20260906110629 77 0 0.0 0.0 0.00 0.00 0.00 75 1009.2
20260906110128 77 0 0.0 0.0 0.00 0.00 0.00 75 1009.3
20260906105627 77 0 0.0 0.0 0.00 0.00 0.00 75 1009.2
20260906104628 77 0 0.0 0.0 0.00 0.00 0.00 75 1009.1
20260906104129 77 0 0.0 0.0 0.00 0.00 0.00 75 1009.2
20260906103629 77 0 0.0 0.0 0.00 0.00 0.00 75 1009.2
20260906103129 77 0 0.0 0.0 0.00 0.00 0.00 75 1009.2
20260906102628 77 0 0.0 0.0 0.00 0.00 0.00 75 1009.1
20260906102128 77 0 0.0 0.0 0.00 0.00 0.00 75 1009.1
20260906101630 77 0 0.0 0.0 0.00 0.00 0.00 75 1009.1
20260906101128 77 0 0.0 0.0 0.00 0.00 0.00 75 1009.2
20260906100629 77 0 0.0 0.0 0.00 0.00 0.00 75 1009.2
20260906100128 77 0 0.0 0.0 0.00 0.00 0.00 75 1009.3
20260906095630 77 0 0.0 0.0 0.00 0.00 0.00 75 1009.1
20260906095130 77 0 0.0 0.0 0.00 0.00 0.00 75 1009.0
20260906094628 77 0 0.0 0.0 0.00 0.00 0.00 75 1009.1
20260906094129 77 0 0.0 0.0 0.00 0.00 0.00 75 1009.0
20260906093628 78 0 0.0 0.0 0.00 0.00 0.00 76 1009.0
20260906093127 78 0 0.0 0.0 0.00 0.00 0.00 76 1009.0
20260906092628 78 0 0.0 0.0 0.00 0.00 0.00 76 1008.9
20260906092128 78 0 0.0 0.0 0.00 0.00 0.00 76 1008.9
20260906091630 78 0 0.0 0.0 0.00 0.00 0.00 76 1008.9
20260906091128 78 0 0.0 0.0 0.00 0.00 0.00 76 1008.9
20260906090629 78 0 0.0 0.0 0.00 0.00 0.00 76 1008.9
20260906090128 78 0 0.0 0.0 0.00 0.00 0.00 76 1008.8
20260906085633 78 0 0.0 0.0 0.00 0.00 0.00 76 1008.8
20260906085128 78 0 0.0 0.0 0.00 0.00 0.00 75 1008.7
20260906084628 78 0 0.0 0.0 0.00 0.00 0.00 75 1008.7
20260906084129 78 0 0.0 0.0 0.00 0.00 0.00 75 1008.6
20260906083628 79 0 0.0 0.0 0.00 0.00 0.00 74 1008.5
20260906083130 79 0 0.0 0.0 0.00 0.00 0.00 74 1008.5
20260906082629 79 0 0.0 0.0 0.00 0.00 0.00 74 1008.5
20260906082129 79 0 0.0 0.0 0.00 0.00 0.00 74 1008.5
20260906081628 79 0 0.0 0.0 0.00 0.00 0.00 74 1008.5
20260906081127 79 0 0.0 0.0 0.00 0.00 0.00 73 1008.5
20260906080630 79 0 0.0 0.0 0.00 0.00 0.00 73 1008.4
20260906080129 79 0 0.0 0.0 0.00 0.00 0.00 73 1008.4
20260906075630 79 0 0.0 0.0 0.00 0.00 0.00 73 1008.2
20260906075129 79 0 0.0 0.0 0.00 0.00 0.00 73 1008.2
20260906074630 79 0 0.0 0.0 0.00 0.00 0.00 73 1008.1
20260906074129 79 0 0.0 0.0 0.00 0.00 0.00 73 1008.1
20260906073627 79 0 0.0 0.0 0.00 0.00 0.00 72 1008.2
20260906073130 80 0 0.0 0.0 0.00 0.00 0.00 72 1008.2
20260906072629 80 0 0.0 0.0 0.00 0.00 0.00 72 1008.4
20260906072130 80 0 0.0 0.0 0.00 0.00 0.00 72 1008.3
20260906071629 80 0 0.0 0.0 0.00 0.00 0.00 71 1008.5
20260906071130 80 0 0.0 0.0 0.00 0.00 0.00 71 1008.5
20260906070629 80 0 0.0 0.0 0.00 0.00 0.00 72 1008.5
20260906070129 80 0 0.0 0.0 0.00 0.00 0.00 72 1008.5
20260906065630 79 0 0.0 0.0 0.00 0.00 0.00 72 1008.3
20260906065129 79 0 0.0 0.0 0.00 0.00 0.00 72 1008.4
20260906064630 80 0 0.0 0.0 0.00 0.00 0.00 72 1008.3
20260906064129 80 0 0.0 0.0 0.00 0.00 0.00 72 1008.4
20260906063630 80 0 0.0 0.0 0.00 0.00 0.00 72 1008.3
20260906063128 80 0 0.0 0.0 0.00 0.00 0.00 71 1008.4
20260906062628 80 0 0.0 0.0 0.00 0.00 0.00 71 1008.4
20260906062130 80 0 0.0 0.0 0.00 0.00 0.00 71 1008.4
20260906061629 80 0 0.0 0.0 0.00 0.00 0.00 71 1008.4
20260906061130 80 0 0.0 0.0 0.00 0.00 0.00 71 1008.5
20260906060629 80 0 0.0 0.0 0.00 0.00 0.00 70 1008.5
20260906060128 81 0 0.0 0.0 0.00 0.00 0.00 70 1008.6
20260906055630 81 0 0.0 0.0 0.00 0.00 0.00 70 1008.5
20260906055128 81 0 0.0 0.0 0.00 0.00 0.00 69 1008.5
20260906054630 81 0 0.0 0.0 0.00 0.00 0.00 68 1008.6
20260906054129 82 0 0.0 0.0 0.00 0.00 0.00 68 1008.5
20260906053629 82 0 0.0 0.0 0.00 0.00 0.00 67 1008.5
20260906053128 82 0 0.0 0.0 0.00 0.00 0.00 66 1008.5
20260906052130 82 0 0.0 0.0 0.00 0.00 0.00 65 1008.4
20260906051651 83 0 0.0 0.0 0.00 0.00 0.00 65 1008.3
20260906051130 83 0 0.0 0.0 0.00 0.00 0.00 64 1008.4
20260906050629 83 0 0.0 0.0 0.00 0.00 0.00 64 1008.2
20260906050128 84 0 0.0 0.0 0.00 0.00 0.00 63 1008.3
20260906045628 83 0 0.0 0.0 0.00 0.00 0.00 63 1008.2
20260906045128 83 0 0.0 0.0 0.00 0.00 0.00 63 1008.2
20260906044630 84 0 0.0 0.0 0.00 0.00 0.00 63 1008.4
20260906044129 84 0 0.0 0.0 0.00 0.00 0.00 62 1008.2
20260906043630 84 0 0.0 0.0 0.00 0.00 0.00 62 1008.1
20260906043128 84 0 0.0 0.0 0.00 0.00 0.00 62 1008.2
20260906042628 84 0 0.0 0.0 0.00 0.00 0.00 62 1008.1
20260906042129 84 0 0.0 0.0 0.00 0.00 0.00 62 1008.2
20260906041628 84 0 0.0 0.0 0.00 0.00 0.00 61 1008.2
20260906041138 85 0 0.0 0.0 0.00 0.00 0.00 60 1008.1
20260906040628 85 0 0.0 0.0 0.00 0.00 0.00 59 1008.2
20260906040129 85 0 0.0 0.0 0.00 0.00 0.00 58 1008.2
20260906035628 85 0 0.0 0.0 0.00 0.00 0.00 58 1008.3
20260906035128 86 0 0.0 0.0 0.00 0.00 0.00 57 1008.3
20260906034628 86 0 0.0 0.0 0.00 0.00 0.00 56 1008.2
20260906034129 86 0 0.0 0.0 0.00 0.00 0.00 56 1008.2
20260906033630 86 0 0.0 0.0 0.00 0.00 0.00 56 1008.0
20260906033131 86 270 1.0 38.0 0.00 0.00 0.00 55 1008.0
20260906032630 86 270 2.0 73.0 0.00 0.00 0.00 55 1008.1
20260906032129 86 270 3.0 84.0 0.00 0.00 0.00 54 1008.1
20260906031630 86 270 2.0 84.0 0.00 0.00 0.00 54 1008.0
20260906031130 86 0 0.0 0.0 0.00 0.00 0.00 54 1007.9
20260906030629 86 0 0.0 0.0 0.00 0.00 0.00 55 1008.0
20260906030136 87 0 0.0 0.0 0.00 0.00 0.00 54 1008.1
20260906025629 87 0 0.0 0.0 0.00 0.00 0.00 53 1008.0
20260906025130 87 0 0.0 0.0 0.00 0.00 0.00 53 1007.9
20260906024629 87 0 0.0 0.0 0.00 0.00 0.00 53 1008.0
20260906024131 87 0 0.0 0.0 0.00 0.00 0.00 54 1007.9
20260906023629 87 0 0.0 0.0 0.00 0.00 0.00 53 1007.9
20260906023129 88 0 0.0 0.0 0.00 0.00 0.00 52 1007.8
20260906022630 88 0 0.0 0.0 0.00 0.00 0.00 52 1007.6
20260906022128 88 0 0.0 0.0 0.00 0.00 0.00 51 1007.5
20260906021630 88 0 0.0 0.0 0.00 0.00 0.00 51 1007.3
20260906021129 88 0 0.0 0.0 0.00 0.00 0.00 52 1007.4
20260906020631 88 0 0.0 0.0 0.00 0.00 0.00 51 1007.4
20260906020130 89 0 0.0 0.0 0.00 0.00 0.00 50 1007.4
20260906015629 89 0 0.0 0.0 0.00 0.00 0.00 50 1007.3
20260906015130 89 0 0.0 0.0 0.00 0.00 0.00 50 1007.2
20260906014629 90 0 0.0 0.0 0.00 0.00 0.00 49 1007.3
20260906014128 90 0 0.0 0.0 0.00 0.00 0.00 49 1007.2
20260906013629 90 0 0.0 0.0 0.00 0.00 0.00 48 1007.1
20260906013129 91 0 0.0 0.0 0.00 0.00 0.00 48 1007.0
20260906012628 92 0 0.0 0.0 0.00 0.00 0.00 47 1007.0
20260906012130 92 0 0.0 0.0 0.00 0.00 0.00 47 1007.0
20260906011629 92 0 0.0 0.0 0.00 0.00 0.00 46 1007.0
20260906011130 93 0 0.0 0.0 0.00 0.00 0.00 46 1007.0
20260906010629 93 0 0.0 0.0 0.00 0.00 0.00 46 1006.9
20260906010130 94 0 0.0 0.0 0.00 0.00 0.00 45 1006.9
20260906005629 94 0 0.0 0.0 0.00 0.00 0.00 44 1006.8
20260906005129 95 0 0.0 0.0 0.00 0.00 0.00 43 1006.8
20260906004630 96 0 0.0 0.0 0.00 0.00 0.00 42 1006.7
20260906004129 97 0 0.0 0.0 0.00 0.00 0.00 40 1006.8
20260906003633 97 0 0.0 0.0 0.00 0.00 0.00 39 1006.8
20260906003129 98 0 0.0 0.0 0.00 0.00 0.00 39 1006.9
20260906002628 99 0 0.0 0.0 0.00 0.00 0.00 38 1006.8
20260906002130 100 0 0.0 0.0 0.00 0.00 0.00 37 1006.8
20260906001629 101 0 0.0 0.0 0.00 0.00 0.00 34 1006.7
20260906001130 102 0 0.0 0.0 0.00 0.00 0.00 34 1006.8
20260906000629 103 0 0.0 0.0 0.00 0.00 0.00 34 1006.7
20260906000130 103 0 0.0 0.0 0.00 0.00 0.00 33 1006.6
20260905235629 104 0 0.0 0.0 0.00 0.00 0.00 31 1006.6
20260905235128 105 0 0.0 0.0 0.00 0.00 0.00 31 1006.7
20260905234630 104 0 0.0 0.0 0.00 0.00 0.00 32 1006.7
20260905234130 103 0 0.0 0.0 0.00 0.00 0.00 32 1006.7
20260905233629 103 0 0.0 0.0 0.00 0.00 0.00 32 1006.7
20260905233130 103 0 0.0 0.0 0.00 0.00 0.00 32 1006.6
20260905232629 104 0 0.0 0.0 0.00 0.00 0.00 31 1006.6
20260905232130 105 0 0.0 0.0 0.00 0.00 0.00 30 1006.6
20260905231629 106 0 0.0 0.0 0.00 0.00 0.00 30 1006.6
20260905231129 106 0 0.0 0.0 0.00 0.00 0.00 30 1006.5
20260905230630 106 0 0.0 0.0 0.00 0.00 0.00 30 1006.6
20260905230129 105 0 0.0 0.0 0.00 0.00 0.00 31 1006.5
20260905225630 104 0 0.0 0.0 0.00 0.00 0.00 31 1006.5
20260905225129 104 0 0.0 0.0 0.00 0.00 0.00 31 1006.5
20260905224630 104 0 0.0 0.0 0.00 0.00 0.00 32 1006.6
20260905224130 103 0 0.0 0.0 0.00 0.00 0.00 32 1006.6
20260905223629 104 0 0.0 0.0 0.00 0.00 0.00 30 1006.6
20260905223130 106 0 0.0 0.0 0.00 0.00 0.00 30 1006.6
20260905222629 105 0 0.0 0.0 0.00 0.00 0.00 31 1006.7
20260905222129 105 0 0.0 0.0 0.00 0.00 0.00 30 1006.8
20260905221630 105 0 0.0 0.0 0.00 0.00 0.00 30 1006.8
20260905221129 104 0 0.0 0.0 0.00 0.00 0.00 30 1006.8
20260905220628 104 0 0.0 0.0 0.00 0.00 0.00 30 1006.9
20260905220129 104 0 0.0 0.0 0.00 0.00 0.00 30 1006.9
20260905215629 104 0 0.0 0.0 0.00 0.00 0.00 30 1006.9
20260905215130 104 0 0.0 0.0 0.00 0.00 0.00 31 1007.0
20260905214629 105 0 0.0 0.0 0.00 0.00 0.00 31 1007.0
20260905214130 104 0 0.0 0.0 0.00 0.00 0.00 32 1007.1
20260905213630 103 0 0.0 0.0 0.00 0.00 0.00 32 1007.1
20260905213129 104 0 0.0 0.0 0.00 0.00 0.00 31 1007.2
20260905212628 106 0 0.0 0.0 0.00 0.00 0.00 30 1007.3
20260905212129 105 0 0.0 0.0 0.00 0.00 0.00 31 1007.3
20260905211629 104 0 0.0 0.0 0.00 0.00 0.00 32 1007.4
20260905211130 104 0 0.0 0.0 0.00 0.00 0.00 33 1007.5
20260905210629 103 0 0.0 0.0 0.00 0.00 0.00 33 1007.5
20260905210130 104 0 0.0 0.0 0.00 0.00 0.00 32 1007.6
20260905205629 102 0 0.0 0.0 0.00 0.00 0.00 33 1007.7
20260905204630 102 0 0.0 0.0 0.00 0.00 0.00 34 1007.9
20260905204129 102 0 0.0 0.0 0.00 0.00 0.00 34 1007.9
20260905203630 103 0 0.0 0.0 0.00 0.00 0.00 33 1008.0
20260905203129 104 0 0.0 0.0 0.00 0.00 0.00 33 1008.1
20260905202628 104 0 0.0 0.0 0.00 0.00 0.00 33 1008.2
20260905202130 104 0 0.0 0.0 0.00 0.00 0.00 33 1008.3
20260905201629 105 0 0.0 0.0 0.00 0.00 0.00 33 1008.4
20260905201130 104 0 0.0 0.0 0.00 0.00 0.00 34 1008.5
20260905200629 104 0 0.0 0.0 0.00 0.00 0.00 33 1008.6
20260905200130 104 0 0.0 0.0 0.00 0.00 0.00 31 1008.6
20260905195629 105 0 0.0 0.0 0.00 0.00 0.00 32 1008.7
20260905195130 105 0 0.0 0.0 0.00 0.00 0.00 32 1008.9
20260905194630 105 0 0.0 0.0 0.00 0.00 0.00 33 1008.8
20260905194129 105 0 0.0 0.0 0.00 0.00 0.00 33 1008.9
20260905193630 105 0 0.0 0.0 0.00 0.00 0.00 33 1009.0
20260905193129 104 0 0.0 0.0 0.00 0.00 0.00 34 1009.1
20260905192628 104 0 0.0 0.0 0.00 0.00 0.00 33 1009.2
20260905192129 103 0 0.0 0.0 0.00 0.00 0.00 35 1009.2
20260905191629 103 0 0.0 0.0 0.00 0.00 0.00 34 1009.4
20260905191130 104 0 0.0 0.0 0.00 0.00 0.00 34 1009.5